{"data":{"norad_id":82381,"intl_designator":"","name":"UNKNOWN","alt_names":[],"object_type":"UNKNOWN","status":"UNKNOWN","operator":null,"country":null,"launch_date":null,"launch_site_code":null,"launch_vehicle":null,"mission":null,"orbit_class":"UNKNOWN","rcs_meters":null,"size_class":null,"mass_kg":null,"dimensions":null,"purposes":[],"wikipedia_slug":null,"has_3d_model":false,"image_url":null,"decayed_at":null,"tle_current":{"epoch":"2026-09-17T12:25:56.497728Z","epoch_age_seconds":272791,"freshness":"STALE","line1":"1 82381U          26260.51801502  .00018893  00000+0  17836-2 0  9995","line2":"2 82381  98.3721 146.1684 0007416 341.2124  18.8819 14.93772913552260","mean_motion":14.93772913,"eccentricity":0.0007416,"inclination_deg":98.3721,"raan_deg":146.1684,"arg_perigee_deg":341.2124,"mean_anomaly_deg":18.8819,"bstar":0.0017836,"rev_number":55226,"period_min":96.40019493378,"perigee_km":581.01938061188,"apogee_km":591.34886169877,"semimajor_km":6964.3211211553,"source":"CELESTRAK","updated_at":"2026-09-20T09:00:32.433621Z"}}}